Weather History for Louisville Bowman, KY

Change the Weather History Date:

Friday, February 1, 2013

  Actual Average Record
Temperature  
Mean Temperature 15 °F 35 °F  
Max Temperature 21 °F 43 °F 67 °F (1974)
Min Temperature 9 °F 27 °F -2 °F (1951)
Degree Days  
Heating Degree Days 50 30  
Month to date heating degree days 50 30  
Since 1 July heating degree days 2501 2639  
Cooling Degree Days 0 0  
Month to date cooling degree days 0 0  
Year to date cooling degree days 0 0  
Moisture  
Dew Point 3 °F    
Average Humidity 60    
Maximum Humidity 69    
Minimum Humidity 51    
Precipitation  
Precipitation T in 0.12 in 1.44 in (1981)
Month to date precipitation T 0.12  
Year to date precipitation 4.87 3.50  
Sea Level Pressure  
Sea Level Pressure 30.42 in    
Wind  
Wind Speed 9 mph (West)    
Max Wind Speed 25 mph    
Max Gust Speed 37 mph    
Visibility 10 miles    
Events Snow    
T = Trace of Precipitation, MM = Missing Value Source: NWS Daily Summary

Daily Weather History Graph

Daily Weather History Graph

Search for Another Location

Airport:

Trip Planner

Search our weather history database for the weather conditions in past years. The results will help you decide how hot, cold, wet, or windy it might be!

Date:

Astronomy

Feb. 01, 2013 Rise Set
Actual Time 7:47 AM EST 6:05 PM EST
Civil Twilight 7:19 AM EST 6:33 PM EST
Nautical Twilight 6:47 AM EST 7:05 PM EST
Astronomical Twilight 6:16 AM EST 7:36 PM EST
Moon No Moon Rise 10:26 AM EST (2/1)
Length of Visible Light 11h 14m
Length of Day
10h 18m
Waning Gibbous, 70% of the Moon is Illuminated
Feb 1
Waning Gibbous
Feb 3
Last Quarter
Feb 10
New
Feb 17
First Quarter
Feb 25
Full

Hourly Weather History & Observations

Time (EST) Temp. Windchill Dew Point Humidity Pressure Visibility Wind Dir Wind Speed Gust Speed Precip Events Conditions
12:53 AM 16.0 °F -0.9 °F 6.1 °F 65% 30.22 in 10.0 mi NW 19.6 mph 27.6 mph N/A   Mostly Cloudy
1:53 AM 14.0 °F -1.4 °F 6.1 °F 71% 30.27 in 4.0 mi WNW 15.0 mph 26.5 mph 0.00 in Snow Light Snow
2:04 AM 14.0 °F -2.0 °F 3.2 °F 62% 30.26 in 9.0 mi NW 16.1 mph 24.2 mph 0.00 in   Mostly Cloudy
2:53 AM 14.0 °F -0.8 °F 1.0 °F 56% 30.31 in 10.0 mi WNW 13.8 mph 25.3 mph 0.00 in   Mostly Cloudy
3:53 AM 12.9 °F -3.9 °F -0.0 °F 56% 30.34 in 10.0 mi WNW 17.3 mph 24.2 mph N/A   Mostly Cloudy
4:53 AM 10.9 °F -5.9 °F -0.9 °F 59% 30.35 in 10.0 mi WNW 16.1 mph - N/A   Clear
5:53 AM 10.0 °F -7.1 °F -2.0 °F 58% 30.40 in 10.0 mi NW 16.1 mph 21.9 mph N/A   Scattered Clouds
6:53 AM 10.4 °F -4.1 °F -0.4 °F 62% 30.39 in 10.0 mi WNW 11.5 mph 21.9 mph N/A   Partly Cloudy
7:53 AM 9.0 °F -3.2 °F -0.9 °F 64% 30.43 in 10.0 mi West 8.1 mph - N/A   Scattered Clouds
8:53 AM 10.0 °F -0.9 °F -0.0 °F 64% 30.46 in 10.0 mi WNW 6.9 mph - N/A   Clear
9:53 AM 12.0 °F -2.7 °F 1.9 °F 64% 30.49 in 10.0 mi WNW 12.7 mph - N/A   Scattered Clouds
10:21 AM 12.2 °F -1.8 °F 1.4 °F 62% 30.47 in 10.0 mi West 11.5 mph - N/A   Mostly Cloudy
10:28 AM 12.2 °F 2.9 °F 1.4 °F 62% 30.47 in 10.0 mi West 5.8 mph - N/A   Scattered Clouds
10:49 AM 12.2 °F 1.7 °F 3.2 °F 67% 30.48 in 10.0 mi WSW 6.9 mph - N/A   Mostly Cloudy
10:53 AM 12.0 °F 0.5 °F 3.0 °F 67% 30.51 in 10.0 mi SW 8.1 mph - N/A   Mostly Cloudy
11:27 AM 14.0 °F 0.5 °F 3.2 °F 62% 30.49 in 10.0 mi West 11.5 mph - N/A   Scattered Clouds
11:34 AM 12.2 °F 4.3 °F 3.2 °F 67% 30.49 in 10.0 mi Variable 4.6 mph - N/A   Mostly Cloudy
11:42 AM 15.8 °F 4.2 °F 3.2 °F 58% 30.50 in 10.0 mi West 9.2 mph - N/A   Partly Cloudy
11:53 AM 15.1 °F 3.3 °F 3.0 °F 59% 30.52 in 10.0 mi WSW 9.2 mph - N/A   Partly Cloudy
12:53 PM 17.1 °F 6.6 °F 5.0 °F 59% 30.51 in 10.0 mi West 8.1 mph - N/A   Partly Cloudy
1:53 PM 18.0 °F 6.9 °F 3.9 °F 54% 30.48 in 10.0 mi WSW 9.2 mph - N/A   Scattered Clouds
2:53 PM 19.4 °F 7.9 °F 5.0 °F 54% 30.44 in 10.0 mi West 10.4 mph - N/A   Partly Cloudy
3:53 PM 19.0 °F 10.0 °F 5.0 °F 54% 30.45 in 10.0 mi South 6.9 mph - N/A   Clear
4:53 PM 21.0 °F 9.9 °F 6.1 °F 53% 30.45 in 10.0 mi West 10.4 mph - N/A   Clear
5:53 PM 19.9 °F 12.1 °F 5.0 °F 52% 30.45 in 10.0 mi Variable 5.8 mph - N/A   Clear
6:53 PM 19.0 °F 11.1 °F 6.1 °F 57% 30.44 in 10.0 mi WSW 5.8 mph - N/A   Clear
7:53 PM 19.0 °F 11.1 °F 6.1 °F 57% 30.45 in 10.0 mi SW 5.8 mph - N/A   Clear
8:53 PM 19.0 °F - 6.1 °F 57% 30.43 in 10.0 mi Calm Calm - N/A   Clear
9:53 PM 19.0 °F - 7.0 °F 59% 30.43 in 10.0 mi Calm Calm - N/A   Mostly Cloudy
10:53 PM 19.0 °F - 8.1 °F 62% 30.40 in 10.0 mi Calm Calm - N/A   Clear
11:53 PM 19.0 °F - 9.0 °F 65% 30.38 in 10.0 mi Calm Calm - N/A   Clear